Location: Hurstbourne Priors
(51.2000°N, 1.3667°W)
Time: 15:39:26
(UTC+00:00)

Transit 4A - All Passes

Search period start: 19 April 2021 00:00
Search period end: 29 April 2021 00:00
Orbit: 869 x 975 km, 66.8° (Epoch: 18 April)

Date Brightness Start Highest point End Pass type
(mag) Time Alt. Az. Time Alt. Az. Time Alt. Az.
19 Apr - 00:46:02 10° SW 00:52:15 69° NW 00:58:19 10° NE visible
19 Apr - 02:34:38 10° W 02:39:40 25° NNW 02:44:37 10° NNE visible
19 Apr - 04:24:08 10° NW 04:28:10 18° N 04:32:10 10° NE visible
19 Apr - 06:11:28 10° NNW 06:16:35 28° NNE 06:21:35 10° E daylight
19 Apr - 07:57:47 10° NW 08:03:46 85° NE 08:09:36 10° SE daylight
19 Apr - 09:45:08 10° WNW 09:49:23 21° WSW 09:53:36 10° SSW daylight
19 Apr - 23:09:37 10° S 23:15:23 41° ESE 23:21:02 10° NE visible
20 Apr - 00:55:36 10° WSW 01:01:41 53° NW 01:07:37 10° NNE visible
20 Apr - 02:44:42 10° WNW 02:49:23 22° NNW 02:54:00 10° NNE visible
20 Apr - 04:33:51 10° NW 04:37:59 19° N 04:42:03 10° NE daylight
20 Apr - 06:20:47 10° NNW 06:26:12 34° NE 06:31:29 10° E daylight
20 Apr - 08:07:08 10° NW 08:13:04 72° WSW 08:18:50 10° SSE daylight
20 Apr - 09:55:21 10° WNW 09:58:21 14° WSW 10:01:19 10° SW daylight
20 Apr - 21:37:47 10° ESE 21:39:27 11° E 21:41:05 10° E visible
20 Apr - 23:18:30 10° SSW 23:24:34 56° ESE 23:30:31 10° NE visible
21 Apr - 01:05:19 10° WSW 01:11:10 42° NW 01:16:53 10° NNE visible
21 Apr - 02:54:46 10° WNW 02:59:09 20° NNW 03:03:29 10° NNE visible
21 Apr - 04:43:27 10° NNW 04:47:47 20° NNE 04:52:02 10° ENE daylight
21 Apr - 06:30:06 10° NNW 06:35:45 42° NE 06:41:17 10° ESE daylight
21 Apr - 08:16:33 10° NW 08:22:17 52° WSW 08:27:52 10° SSE daylight
21 Apr - 21:44:37 10° SE 21:48:22 17° ESE 21:52:04 10° ENE visible
21 Apr - 23:27:35 10° SSW 23:33:49 76° SE 23:39:54 10° NE visible
22 Apr - 01:15:10 10° W 01:20:44 34° NNW 01:26:12 10° NNE visible
22 Apr - 03:04:47 10° NW 03:08:57 19° N 03:13:03 10° NE visible
22 Apr - 04:52:57 10° NNW 04:57:33 22° NNE 05:02:04 10° ENE daylight
22 Apr - 06:39:23 10° NNW 06:45:15 54° NE 06:50:57 10° ESE daylight
22 Apr - 08:26:04 10° NW 08:31:25 37° WSW 08:36:41 10° S daylight
22 Apr - 21:52:34 10° SSE 21:57:22 24° ESE 22:02:05 10° ENE visible
22 Apr - 23:36:54 10° SW 23:43:08 82° NW 23:49:14 10° NE visible
23 Apr - 01:25:07 10° W 01:30:21 28° NNW 01:35:29 10° NNE visible
23 Apr - 03:14:43 10° NW 03:18:46 18° N 03:22:45 10° NE visible
23 Apr - 05:02:22 10° NNW 05:07:15 25° NNE 05:12:04 10° E daylight
23 Apr - 06:48:42 10° NW 06:54:39 71° NE 07:00:28 10° SE daylight
23 Apr - 08:35:43 10° NW 08:40:30 26° WSW 08:45:12 10° SSW daylight
23 Apr - 22:00:59 10° S 22:06:26 33° ESE 22:11:47 10° NE visible
23 Apr - 23:46:22 10° SW 23:52:31 63° NW 23:58:32 10° NE visible
24 Apr - 01:35:09 10° WNW 01:40:03 24° NNW 01:44:52 10° NNE visible
24 Apr - 03:24:32 10° NW 03:28:35 18° N 03:32:34 10° NE visible
24 Apr - 05:11:43 10° NNW 05:16:55 30° NNE 05:22:01 10° E daylight
24 Apr - 06:58:01 10° NW 07:04:00 87° SW 07:09:49 10° SE daylight
24 Apr - 08:45:37 10° WNW 08:49:30 18° WSW 08:53:20 10° SSW daylight
24 Apr - 22:09:41 10° S 22:15:34 46° ESE 22:21:20 10° NE visible
24 Apr - 23:56:00 10° WSW 00:01:58 49° NW 00:07:50 10° NNE visible
25 Apr - 01:45:13 10° WNW 01:49:47 21° NNW 01:54:16 10° NNE visible
25 Apr - 03:34:13 10° NW 03:38:24 19° N 03:42:30 10° NE visible
25 Apr - 05:21:02 10° NNW 05:26:31 36° NE 05:31:53 10° ESE daylight
25 Apr - 07:07:25 10° NW 07:13:15 64° WSW 07:18:59 10° SSE daylight
25 Apr - 08:56:10 10° WNW 08:58:26 12° W 09:00:41 10° SW daylight
25 Apr - 20:36:55 10° SE 20:39:32 13° ESE 20:42:08 10° ENE visible
25 Apr - 22:18:39 10° SSW 22:24:46 63° ESE 22:30:46 10° NE visible
26 Apr - 00:05:45 10° WSW 00:11:29 38° NW 00:17:06 10° NNE visible
26 Apr - 01:55:17 10° WNW 01:59:34 19° NNW 02:03:46 10° NNE visible
26 Apr - 03:43:47 10° NNW 03:48:11 20° NNE 03:52:30 10° ENE visible
26 Apr - 05:30:20 10° NNW 05:36:03 46° NE 05:41:38 10° ESE daylight
26 Apr - 07:16:51 10° NW 07:22:27 46° WSW 07:27:57 10° S daylight
26 Apr - 20:44:20 10° SSE 20:48:29 19° ESE 20:52:35 10° ENE visible
26 Apr - 22:27:49 10° SSW 22:34:03 84° SE 22:40:08 10° NE visible
27 Apr - 00:15:39 10° W 00:21:05 31° NNW 00:26:24 10° NNE visible
27 Apr - 02:05:16 10° NW 02:09:21 18° N 02:13:23 10° NE visible
27 Apr - 03:53:14 10° NNW 03:57:55 23° NNE 04:02:32 10° ENE visible
27 Apr - 05:39:37 10° NW 05:45:31 60° NE 05:51:16 10° SE daylight
27 Apr - 07:26:24 10° NW 07:31:34 33° WSW 07:36:40 10° S daylight
27 Apr - 20:52:28 10° SSE 20:57:31 27° ESE 21:02:28 10° NE visible
27 Apr - 22:37:11 10° SW 22:43:23 75° NW 22:49:27 10° NE visible
28 Apr - 00:25:38 10° W 00:30:43 26° NNW 00:35:44 10° NNE visible
28 Apr - 02:15:10 10° NW 02:19:10 18° N 02:23:07 10° NE visible
28 Apr - 04:02:38 10° NNW 04:07:37 27° NNE 04:12:32 10° E visible
28 Apr - 05:48:56 10° NW 05:54:54 79° NE 06:00:43 10° SE daylight
28 Apr - 07:36:08 10° WNW 07:40:37 23° WSW 07:45:03 10° SSW daylight
28 Apr - 21:00:59 10° S 21:06:36 37° ESE 21:12:06 10° NE visible
28 Apr - 22:46:43 10° SW 22:52:48 57° NW 22:58:44 10° NE visible
